{"data":{"norad_id":47260,"epoch":"2026-09-20T00:12:21.794976Z","epoch_age_seconds":56813,"freshness":"FRESH","line1":"1 47260U 20100C   26263.00858559 -.00000060  00000+0 -20345-3 0  9995","line2":"2 47260  87.8985 331.8226 0001971  90.3606 269.7748 13.12443803277168","mean_motion":13.12443803,"eccentricity":0.0001971,"inclination_deg":87.8985,"raan_deg":331.8226,"arg_perigee_deg":90.3606,"mean_anomaly_deg":269.7748,"bstar":-0.00020345,"rev_number":27716,"period_min":109.71898352588,"perigee_km":1212.2238393469,"apogee_km":1215.2165494529,"semimajor_km":7591.8571943999,"source":"CELESTRAK","updated_at":"2026-09-20T09:00:44.560106Z"}}